Weather History for Longville, MN

Change the Weather History Date:

Tuesday, April 8, 2014

  Actual Average (KPWC) Record (KPWC)
Temperature  
Mean Temperature 36 °F -  
Max Temperature 46 °F 47 °F 71 °F (1997)
Min Temperature 26 °F 27 °F 6 °F (1997)
Degree Days  
Heating Degree Days 29    
Moisture  
Dew Point 25 °F    
Average Humidity 65    
Maximum Humidity 93    
Minimum Humidity 37    
Precipitation  
Precipitation 0.00 in - - ()
Sea Level Pressure  
Sea Level Pressure 29.95 in    
Wind  
Wind Speed 7 mph (WNW)    
Max Wind Speed 13 mph    
Max Gust Speed 17 mph    
Visibility 10 miles    
Events      
Averages and records for this station are not official NWS values.
T = Trace of Precipitation, MM = Missing Value Source: NWS Daily Summary

Daily Weather History Graph

Daily Weather History Graph

Search for Another Location

Airport:

Trip Planner

Search our weather history database for the weather conditions in past years. The results will help you decide how hot, cold, wet, or windy it might be!

Date:

Astronomy

Apr. 08, 2014 Rise Set
Actual Time 6:42 AM CDT 7:55 PM CDT
Civil Twilight 6:10 AM CDT 8:27 PM CDT
Nautical Twilight 5:33 AM CDT 9:05 PM CDT
Astronomical Twilight 4:53 AM CDT 9:45 PM CDT
Moon 1:28 PM CDT (4/8) 3:18 AM CDT (4/8)
Length of Visible Light 14h 16m
Length of Day
13h 13m
Waxing Gibbous, 63% of the Moon is Illuminated
Apr 8
Waxing Gibbous
Apr 15
Full
Apr 22
Last Quarter
Apr 29
New
May 6
First Quarter

Hourly Weather History & Observations

Time (CDT) Temp. Windchill Dew Point Humidity Pressure Visibility Wind Dir Wind Speed Gust Speed Precip Events Conditions
12:16 AM 33.8 °F 27.7 °F 24.8 °F 70% 29.85 in 10.0 mi WNW 6.9 mph - N/A   Clear
12:59 AM 32.0 °F 26.4 °F 24.8 °F 75% 29.86 in 10.0 mi NW 5.8 mph - N/A   Clear
1:09 AM 32.0 °F 24.8 °F 24.8 °F 75% 29.86 in 10.0 mi NW 8.1 mph - N/A   Clear
3:09 AM 30.2 °F 24.3 °F 26.6 °F 86% 29.87 in 10.0 mi NW 5.8 mph - N/A   Clear
3:19 AM 30.2 °F 23.4 °F 26.6 °F 86% 29.87 in 10.0 mi NW 6.9 mph - N/A   Clear
5:20 AM 30.2 °F 24.3 °F 26.6 °F 86% 29.90 in 10.0 mi NW 5.8 mph - N/A   Clear
6:25 AM 30.2 °F 22.6 °F 26.6 °F 86% 29.92 in 10.0 mi NW 8.1 mph - N/A   Clear
6:44 AM 30.2 °F 22.6 °F 26.6 °F 86% 29.92 in 10.0 mi NW 8.1 mph - N/A   Clear
6:48 AM 30.2 °F 22.6 °F 28.4 °F 93% 29.93 in 10.0 mi NW 8.1 mph - N/A   Scattered Clouds
7:02 AM 30.2 °F 22.6 °F 28.4 °F 93% 29.93 in 10.0 mi NW 8.1 mph - N/A   Mostly Cloudy
7:17 AM 30.2 °F 22.6 °F 28.4 °F 93% 29.94 in 10.0 mi NW 8.1 mph - N/A   Overcast
7:36 AM 30.2 °F 21.9 °F 28.4 °F 93% 29.95 in 10.0 mi NW 9.2 mph 16.1 mph N/A   Overcast
7:56 AM 30.2 °F 21.9 °F 28.4 °F 93% 29.96 in 10.0 mi NW 9.2 mph - N/A   Overcast
8:17 AM 30.2 °F 21.9 °F 26.6 °F 86% 29.97 in 10.0 mi WNW 9.2 mph - N/A   Overcast
8:37 AM 32.0 °F 24.8 °F 26.6 °F 80% 29.97 in 10.0 mi NW 8.1 mph - N/A   Overcast
8:58 AM 33.8 °F 28.6 °F 26.6 °F 75% 29.98 in 10.0 mi NW 5.8 mph - N/A   Overcast
9:01 AM 33.8 °F 28.6 °F 26.6 °F 75% 29.97 in 10.0 mi NW 5.8 mph - N/A   Overcast
9:39 AM 35.6 °F 29.9 °F 26.6 °F 70% 29.98 in 10.0 mi WNW 6.9 mph - N/A   Scattered Clouds
9:57 AM 35.6 °F 29.2 °F 26.6 °F 70% 29.98 in 10.0 mi NW 8.1 mph - N/A   Scattered Clouds
10:16 AM 35.6 °F 29.9 °F 26.6 °F 70% 29.98 in 10.0 mi WNW 6.9 mph - N/A   Clear
10:21 AM 37.4 °F 32.1 °F 26.6 °F 65% 29.98 in 10.0 mi NW 6.9 mph - N/A   Clear
10:59 AM 37.4 °F 32.1 °F 26.6 °F 65% 29.99 in 10.0 mi WNW 6.9 mph 16.1 mph N/A   Clear
11:17 AM 39.2 °F 32.5 °F 26.6 °F 61% 30.00 in 10.0 mi WNW 10.4 mph - N/A   Clear
11:38 AM 39.2 °F 34.2 °F 26.6 °F 61% 30.00 in 10.0 mi NW 6.9 mph - N/A   Clear
11:57 AM 39.2 °F 32.0 °F 26.6 °F 61% 30.00 in 10.0 mi WNW 11.5 mph 17.3 mph N/A   Scattered Clouds
12:17 PM 39.2 °F 34.2 °F 26.6 °F 61% 30.00 in 10.0 mi NW 6.9 mph - N/A   Clear
12:36 PM 41.0 °F 34.3 °F 26.6 °F 57% 29.99 in 10.0 mi WNW 11.5 mph - N/A   Clear
12:58 PM 41.0 °F 36.4 °F 24.8 °F 53% 29.99 in 10.0 mi WNW 6.9 mph - N/A   Clear
1:21 PM 42.8 °F 37.5 °F 24.8 °F 49% 29.99 in 10.0 mi WNW 9.2 mph - N/A   Clear
1:36 PM 42.8 °F 36.6 °F 24.8 °F 49% 29.99 in 10.0 mi West 11.5 mph 17.3 mph N/A   Clear
1:57 PM 44.6 °F 40.2 °F 24.8 °F 46% 29.99 in 10.0 mi NW 8.1 mph - N/A   Clear
2:18 PM 44.6 °F 39.7 °F 24.8 °F 46% 29.98 in 10.0 mi WNW 9.2 mph - N/A   Clear
2:36 PM 44.6 °F 40.7 °F 23.0 °F 43% 29.98 in 10.0 mi WNW 6.9 mph - N/A   Clear
2:56 PM 44.6 °F 40.7 °F 23.0 °F 43% 29.98 in 10.0 mi NW 6.9 mph 17.3 mph N/A   Clear
3:17 PM 46.4 °F 40.7 °F 23.0 °F 40% 29.97 in 10.0 mi WNW 12.7 mph - N/A   Clear
3:36 PM 44.6 °F 40.2 °F 21.2 °F 39% 29.97 in 10.0 mi WNW 8.1 mph - N/A   Clear
3:57 PM 46.4 °F 42.4 °F 21.2 °F 37% 29.97 in 10.0 mi WNW 8.1 mph 16.1 mph N/A   Clear
4:16 PM 46.4 °F 42.4 °F 21.2 °F 37% 29.97 in 10.0 mi WNW 8.1 mph 16.1 mph N/A   Clear
4:36 PM 46.4 °F 41.5 °F 21.2 °F 37% 29.96 in 10.0 mi WNW 10.4 mph 17.3 mph N/A   Clear
4:56 PM 46.4 °F 41.9 °F 21.2 °F 37% 29.96 in 10.0 mi WNW 9.2 mph - N/A   Clear
5:16 PM 46.4 °F 42.4 °F 21.2 °F 37% 29.96 in 10.0 mi NNW 8.1 mph - N/A   Clear
5:37 PM 46.4 °F 42.9 °F 23.0 °F 40% 29.95 in 10.0 mi West 6.9 mph - N/A   Clear
5:56 PM 46.4 °F 41.9 °F 23.0 °F 40% 29.96 in 10.0 mi West 9.2 mph 16.1 mph N/A   Clear
6:16 PM 46.4 °F 45.2 °F 21.2 °F 37% 29.96 in 10.0 mi NW 3.5 mph - N/A   Clear
6:36 PM 46.4 °F 45.2 °F 23.0 °F 40% 29.96 in 10.0 mi NW 3.5 mph - N/A   Clear
6:56 PM 44.6 °F 43.1 °F 23.0 °F 43% 29.95 in 10.0 mi NW 3.5 mph - N/A   Clear
7:16 PM 44.6 °F 42.2 °F 24.8 °F 46% 29.96 in 10.0 mi WNW 4.6 mph - N/A   Clear
7:38 PM 44.6 °F 43.1 °F 24.8 °F 46% 29.95 in 10.0 mi NW 3.5 mph - N/A   Clear
7:57 PM 39.2 °F - 24.8 °F 56% 29.95 in 10.0 mi Calm Calm - N/A   Clear
8:16 PM 35.6 °F - 24.8 °F 65% 29.94 in 10.0 mi Calm Calm - N/A   Clear
8:36 PM 33.8 °F - 24.8 °F 70% 29.94 in 10.0 mi Calm Calm - N/A   Clear
8:58 PM 30.2 °F - 24.8 °F 80% 29.94 in 10.0 mi Calm Calm - N/A   Clear
9:16 PM 30.2 °F - 23.0 °F 75% 29.94 in 10.0 mi Calm Calm - N/A   Clear
9:37 PM 28.4 °F - 23.0 °F 80% 29.94 in 10.0 mi Calm Calm - N/A   Clear
9:58 PM 28.4 °F - 24.8 °F 86% 29.93 in 10.0 mi Calm Calm - N/A   Clear
10:19 PM 28.4 °F - 24.8 °F 86% 29.93 in 10.0 mi Calm Calm - N/A   Clear
10:36 PM 28.4 °F - 24.8 °F 86% 29.91 in 10.0 mi Calm Calm - N/A   Scattered Clouds
11:04 PM 26.6 °F - 23.0 °F 86% 29.90 in 10.0 mi Calm Calm - N/A   Scattered Clouds
11:17 PM 26.6 °F - 24.8 °F 93% 29.90 in 10.0 mi Calm Calm - N/A   Clear
11:36 PM 26.6 °F - 23.0 °F 86% 29.90 in 10.0 mi Calm Calm - N/A   Scattered Clouds
11:59 PM 26.6 °F - 23.0 °F 86% 29.90 in 10.0 mi Calm Calm - N/A   Mostly Cloudy